Le nostre stazioni meteo in Italia

Pubblicità
Il mio iltempo24.it
Genova/Sestri, Italia (16120): Temperatura & dewpoint: 14.01.2019 07:00:00 - 20.01.2019 07:00:00 (CET)Genova/Sestri, Italia (16120): velocità del vento: 14.01.2019 07:00:00 - 20.01.2019 07:00:00 (CET)Genova/Sestri, Italia (16120): direzione del vento: 14.01.2019 07:00:00 - 20.01.2019 07:00:00 (CET)Genova/Sestri, Italia (16120): reduced air pressure: 14.01.2019 07:00:00 - 20.01.2019 07:00:00 (CET)Genova/Sestri, Italia (16120): visibility: 14.01.2019 07:00:00 - 20.01.2019 07:00:00 (CET)
Data & Tempo tt [°C] td [°C] ff [km/h] ff [kn] dd ppp [hPa] vv [km]
20.01.2019 07:00:00 5,0 -1,0 21 11 NNE - 10
20.01.2019 06:00:00 5,0 -1,0 22 12 NE - 10
20.01.2019 05:00:00 5,0 0,0 18 10 NNE - 10
20.01.2019 04:00:00 5,2 -0,6 21 11 NNE 1013,4 30
20.01.2019 03:00:00 6,0 -1,0 15 8 NE - 10
20.01.2019 02:00:00 6,0 -1,0 13 7 NNE - 10
20.01.2019 01:00:00 5,6 -0,9 16 9 NE 1014,0 10
20.01.2019 00:00:00 6,0 0,0 13 7 NE - 10
19.01.2019 23:00:00 6,0 0,0 11 6 ENE - 10
19.01.2019 22:00:00 6,0 -0,2 9 5 NNE 1014,4 10
19.01.2019 21:00:00 6,0 0,0 5 3 NE - 10
19.01.2019 20:00:00 7,0 0,0 8 4 - - 10
19.01.2019 19:00:00 6,2 0,5 18 10 NE 1014,1 10
19.01.2019 18:00:00 6,0 0,0 15 8 NE - 10
19.01.2019 17:00:00 7,0 0,0 11 6 NNE - 10
19.01.2019 16:00:00 7,0 0,2 4 2 - 1014,3 10
19.01.2019 15:00:00 7,0 0,0 11 6 N - 10
19.01.2019 14:00:00 7,0 0,0 11 6 N - 10
19.01.2019 13:00:00 6,4 0,4 8 4 NNE 1015,1 10
19.01.2019 12:00:00 7,0 0,0 21 11 N - 10
19.01.2019 11:00:00 7,0 1,0 11 6 N - 10
19.01.2019 10:00:00 6,7 0,6 16 9 NNE 1015,7 10
19.01.2019 09:00:00 7,0 1,0 16 9 NE - 10
19.01.2019 08:00:00 6,0 1,0 13 7 NE - 10
19.01.2019 07:00:00 6,7 0,8 15 8 NNE 1014,5 10
19.01.2019 06:00:00 7,0 1,0 15 8 NNE - 10
19.01.2019 05:00:00 7,0 1,0 11 6 NE - 10
19.01.2019 04:00:00 6,8 1,1 8 4 NE 1014,6 10
19.01.2019 03:00:00 7,0 1,0 11 6 NE - 10
19.01.2019 02:00:00 7,0 1,0 15 8 NE - 10
19.01.2019 01:00:00 6,7 0,3 15 8 NE 1015,0 10
19.01.2019 00:00:00 7,0 0,0 9 5 NE - 10
18.01.2019 23:00:00 7,0 0,0 11 6 NE - 10
18.01.2019 22:00:00 7,7 -0,2 13 7 NE 1013,6 10
18.01.2019 21:00:00 8,0 0,0 18 10 NNE - 10
18.01.2019 20:00:00 9,0 -2,0 13 7 ENE - 10
18.01.2019 19:00:00 9,2 -2,1 5 3 NE 1012,4 10
18.01.2019 18:00:00 11,0 -3,0 15 8 N - 10
18.01.2019 17:00:00 12,0 -4,0 18 10 N - 10
18.01.2019 16:00:00 12,1 -4,9 22 12 N 1011,7 10
18.01.2019 15:00:00 13,0 -4,0 16 9 N - 10
18.01.2019 14:00:00 14,0 -7,0 8 4 S - 10
18.01.2019 13:00:00 13,2 -8,4 9 5 - 1010,9 10
18.01.2019 12:00:00 13,0 -8,0 8 4 - - 10
18.01.2019 11:00:00 12,0 -7,0 11 6 N - 10
18.01.2019 10:00:00 10,9 -3,5 18 10 NNE 1010,8 10
18.01.2019 09:00:00 8,0 0,0 11 6 ENE - 10
18.01.2019 08:00:00 9,0 -2,0 15 8 NE - 10
18.01.2019 07:00:00 7,3 1,4 15 8 NE 1008,7 10
18.01.2019 06:00:00 7,0 2,0 13 7 NE - 10
18.01.2019 05:00:00 7,0 2,0 11 6 E - 10
18.01.2019 04:00:00 7,4 2,3 16 9 NE 1008,8 10
18.01.2019 03:00:00 8,0 2,0 13 7 NNE - 10
18.01.2019 02:00:00 8,0 2,0 9 5 NE - 10
18.01.2019 01:00:00 8,3 2,4 13 7 NE 1009,7 10
18.01.2019 00:00:00 9,0 3,0 8 4 NE - 10
17.01.2019 23:00:00 9,0 3,0 13 7 ENE - 10
17.01.2019 22:00:00 9,6 3,4 13 7 NE 1010,1 10
17.01.2019 21:00:00 11,0 8,0 5 3 N - 10
17.01.2019 20:00:00 12,0 8,0 15 8 SO - 10
17.01.2019 19:00:00 12,4 7,9 16 9 SO 1010,2 10
17.01.2019 18:00:00 12,0 7,0 24 13 SO - 10
17.01.2019 17:00:00 13,0 9,0 22 12 SO - 10
17.01.2019 16:00:00 13,0 9,0 13 7 SSO - 10
17.01.2019 15:00:00 12,0 9,0 8 4 SE - 10
17.01.2019 14:00:00 12,0 9,0 9 5 ESE - 10
17.01.2019 13:00:00 12,0 8,3 11 6 ESE 1012,9 10
17.01.2019 12:00:00 11,0 9,0 11 6 E - 10
17.01.2019 11:00:00 11,0 9,0 5 3 ENE - 10
17.01.2019 10:00:00 10,3 8,4 5 3 E 1014,8 10
17.01.2019 09:00:00 11,0 8,0 5 3 SSE - 10
17.01.2019 08:00:00 11,0 8,0 8 4 NNO - 10
17.01.2019 07:00:00 12,5 8,0 26 14 SSO 1014,7 10
17.01.2019 06:00:00 13,0 9,0 26 14 SSO - 10
17.01.2019 05:00:00 13,0 8,0 18 10 S - 10
17.01.2019 04:00:00 12,5 7,2 13 7 S 1015,9 10
17.01.2019 03:00:00 12,0 8,0 22 12 SSO - 10
17.01.2019 02:00:00 12,0 9,0 21 11 SSE - 10
17.01.2019 01:00:00 12,1 7,8 28 15 SSE 1017,7 10
17.01.2019 00:00:00 12,0 9,0 31 17 SSE - 10
16.01.2019 23:00:00 13,0 7,0 28 15 SSE - 10
16.01.2019 22:00:00 12,7 7,6 18 10 SSE 1018,6 10
16.01.2019 21:00:00 13,0 7,0 16 9 S - 10
16.01.2019 20:00:00 11,0 9,0 13 7 S - 5
16.01.2019 19:00:00 11,2 9,1 21 11 SO 1019,0 5
16.01.2019 18:00:00 12,0 8,0 24 13 SSE - 10
16.01.2019 17:00:00 13,0 7,0 24 13 SSO - 10
16.01.2019 16:00:00 13,0 7,5 24 13 S 1019,0 10
16.01.2019 15:00:00 13,0 8,0 24 13 S - 10
16.01.2019 14:00:00 13,0 8,0 18 10 S - 10
16.01.2019 13:00:00 13,0 9,1 24 13 S 1020,2 10
16.01.2019 12:00:00 13,0 9,0 21 11 S - 10
16.01.2019 11:00:00 12,0 8,0 18 10 SSE - 10
16.01.2019 10:00:00 13,2 7,8 16 9 S 1021,2 10
16.01.2019 09:00:00 13,0 8,0 18 10 S - 10
16.01.2019 08:00:00 13,0 9,0 21 11 S - 10
16.01.2019 07:00:00 12,9 7,6 18 10 S 1020,4 10
16.01.2019 06:00:00 13,0 8,0 24 13 S - 10
16.01.2019 05:00:00 13,0 8,0 18 10 S - 10
16.01.2019 04:00:00 12,9 7,7 22 12 S 1020,3 10
16.01.2019 03:00:00 13,0 9,0 16 9 S - 10
16.01.2019 02:00:00 13,0 8,0 22 12 SE - 10
16.01.2019 01:00:00 11,6 5,1 18 10 E 1020,5 10
16.01.2019 00:00:00 11,0 3,0 13 7 ENE - 10
15.01.2019 23:00:00 11,0 3,0 9 5 ENE - 10
15.01.2019 22:00:00 9,9 3,2 8 4 NNE 1020,7 10
15.01.2019 21:00:00 11,0 4,0 5 3 NNE - 10
15.01.2019 20:00:00 12,0 5,0 24 13 ESE - 10
15.01.2019 19:00:00 11,9 5,3 22 12 ESE 1019,6 10
15.01.2019 18:00:00 12,0 4,0 22 12 ESE - 10
15.01.2019 17:00:00 12,0 5,0 22 12 ESE - 10
15.01.2019 16:00:00 13,1 5,0 24 13 ESE 1018,7 10
15.01.2019 15:00:00 13,0 4,0 28 15 ESE - 10
15.01.2019 14:00:00 14,0 5,0 29 16 ESE - 10
15.01.2019 13:00:00 14,6 5,1 15 8 ESE 1018,4 50
15.01.2019 12:00:00 14,0 1,0 11 6 ESE - 10
15.01.2019 11:00:00 14,0 -7,0 4 2 - - 10
15.01.2019 10:00:00 12,6 -6,8 9 5 NE 1018,3 10
15.01.2019 09:00:00 11,0 -8,0 11 6 NNE - 10
15.01.2019 08:00:00 10,0 -7,0 8 4 NNE - 10
15.01.2019 07:00:00 10,2 -9,4 5 3 ESE 1015,8 10
15.01.2019 06:00:00 11,0 -10,0 9 5 NE - 10
15.01.2019 05:00:00 13,0 -10,0 11 6 N - 10
15.01.2019 04:00:00 13,0 -9,8 16 9 N 1014,0 10
15.01.2019 03:00:00 13,0 -10,0 26 14 N - 10
15.01.2019 02:00:00 14,0 -10,0 24 13 N - 10
15.01.2019 01:00:00 13,0 -9,0 24 13 NNE 1012,6 10
15.01.2019 00:00:00 13,0 -9,0 26 14 NNE - 10
14.01.2019 23:00:00 14,0 -8,0 24 13 N - 10
14.01.2019 22:00:00 14,1 -8,9 24 13 N 1010,9 10
14.01.2019 21:00:00 14,0 -8,0 28 15 N - 10
14.01.2019 20:00:00 15,0 -7,0 21 11 N - 10
14.01.2019 19:00:00 14,6 -5,5 21 11 N 1008,6 10
14.01.2019 18:00:00 15,0 -4,0 22 12 N - 10
14.01.2019 17:00:00 16,0 -4,0 18 10 N - 10
14.01.2019 16:00:00 16,3 -3,5 26 14 N 1006,1 10
14.01.2019 15:00:00 16,0 -3,0 31 17 N - 10
14.01.2019 14:00:00 17,0 -2,0 35 19 N - 10
14.01.2019 13:00:00 16,8 -1,7 31 17 N 1004,7 10
14.01.2019 12:00:00 16,0 -1,0 31 17 N - 10
14.01.2019 11:00:00 16,0 0,0 22 12 N - 10
14.01.2019 10:00:00 15,8 0,6 15 8 - 1004,4 10
14.01.2019 09:00:00 9,0 5,0 8 4 NNE - 10
14.01.2019 08:00:00 8,0 5,0 5 3 N - 10
14.01.2019 07:00:00 8,6 5,2 9 5 NNE 1002,5 10

tt = Temperatura
td = dewpoint
ff = velocità del vento
dd = direzione del vento
ppp = reduced air pressure
vv = visibility

Stazioni seguenti

WeatherPro
AMSI
MeteoEarth